Location: Delettes
(50.6178°N, 2.2123°E)
Time: 16:40:31
(UTC+00:00)

STARLINK-1064 - Pass Details

Date: 27 February 2020
Orbit: 548 x 551 km, 53.0° (Epoch: 30 March)

Event Time Altitude Azimuth Distance (km) Brightness Sun altitude
Rises 19:53:32 0° 252° (WSW) 2,712 8.0 -23.6°
Reaches altitude 10° 19:55:45 10° 253° (WSW) 1,820 7.0 -24.0°
Enters shadow 19:59:24 68° 265° (W) 596 3.8 -24.5°
